Tracking 28920 objects as of 27-May-2024
HD Live streaming from Space Station
objects crossing your sky now

STARLINK-31376

Track STARLINK-31376 now!
10-day predictions


NORAD ID: 59524
Int'l Code: 2024-073P
Perigee: 449.9 km
Apogee: 452.4 km
Inclination: 43.0 °
Period: 93.5 minutes
Semi major axis: 6822 km
RCS: Unknown
Launch date: April 17, 2024
Source: United States (US)
Launch site: AIR FORCE EASTERN TEST RANGE (AFETR)
Your satellite tracking list
Your tracking list is empty




NASA's NSSDC Master Catalog

Two Line Element Set (TLE):
1 59524U 24073P   24147.15087739  .00011316  00000-0  27763-3 0  9999
2 59524  43.0032  77.3735 0001882 271.6395  88.4246 15.40713512  5986
Source of the keplerian elements: AFSPC